STARLINK-2481 (48138 NORAD) Tracking and Keplerian Element Data

This shows tracking and keplerian element data for the satellite.

Feedback or suggestion? Click here.




ElementValue
Catalog48138
NameSTARLINK-2481
Epoch Orbit195
Epoch Day173.91668981
Epoch Year2021
RAAN336.4574
Inclination53.0531
Eccentricity0.0001377
Argument of Perigee85.1226
Mean Anonmoly136.7658
Mean Motion15.0637232
Decay Rate0.00036329
L11 48138U 21027AY 21173.91668981 .00036329 00000-0 24471-2 0 9991
L22 48138 53.0531 336.4574 0001377 85.1226 136.7658 15.06372320 1957

Live tracking and technical data element details for STARLINK-2481 (NORAD 48138). STARLINK-2481 can be tracked NOW for your location showing map with azimuth and elevation plus other details from your city location.

Track the satellite on the map from your city or location and see movement details for azimuth, elevation, latitude, longitude, range, height, and movement on the map or in text.







IsCatalogInMostPopularTable: catalog: 48138, numindb: 37
Update: records affected: 1



GetName: 48138 STARLINK-2481

Hit Count: updated at: Thu, 24 Jun 2021 03:36:18 GMT